FW4446 Weather Reports


Display with metric or nautical units.
time (UTC)temp
F
wind
direction
speed
MPH
gust
MPH
rain 1hr
in
rain 24hr
in
rain mn
in
humidity
%
barometer
mb
20190923141255 76 39 0.0 3.0 0.00 0.00 0.00 82 1010.1
20190923140745 76 326 1.0 3.0 0.00 0.00 0.00 82 1010.3
20190923140235 76 327 1.0 9.0 0.00 0.00 0.00 84 1010.3
20190923135715 75 333 1.0 9.0 0.00 0.00 0.00 83 1010.3
20190923135205 74 63 1.0 4.0 0.00 0.00 0.00 84 1010.3
20190923134655 74 350 1.0 4.0 0.00 0.00 0.00 85 1010.5
20190923134149 73 322 1.0 3.0 0.00 0.00 0.00 86 1010.5
20190923133637 73 33 1.0 5.0 0.00 0.00 0.00 87 1010.5
20190923133131 73 337 2.0 4.0 0.00 0.00 0.00 87 1010.6
20190923132623 72 33 1.0 5.0 0.00 0.00 0.00 88 1010.7
20190923132118 71 317 1.0 4.0 0.00 0.00 0.00 89 1010.7
20190923131608 71 320 1.0 3.0 0.00 0.00 0.00 92 1010.9
20190923131101 70 336 1.0 4.0 0.00 0.00 0.00 93 1010.8
20190923130556 69 90 1.0 4.0 0.00 0.00 0.00 96 1010.8
20190923130052 68 313 1.0 4.0 0.00 0.00 0.00 98 1010.8
20190923125539 68 338 0.0 3.0 0.00 0.00 0.00 98 1011.0
20190923125034 67 337 1.0 3.0 0.00 0.00 0.00 99 1011.0
20190923124532 67 342 0.0 3.0 0.00 0.00 0.00 99 1011.1
20190923124030 66 62 0.0 2.0 0.00 0.00 0.00 98 1011.1
20190923123525 65 338 0.0 2.0 0.00 0.00 0.00 98 1011.1
20190923123022 64 338 0.0 3.0 0.00 0.00 0.00 98 1011.2
20190923122521 63 355 0.0 3.0 0.00 0.00 0.00 98 1011.3
20190923122016 62 42 0.0 2.0 0.00 0.00 0.00 98 1011.2
20190923121509 62 42 0.0 2.0 0.00 0.00 0.00 98 1011.2
20190923121009 62 307 0.0 0.0 0.00 0.00 0.00 98 1011.2
20190923120508 61 307 0.0 0.0 0.00 0.00 0.00 98 1011.2
20190923120007 61 307 0.0 0.0 0.00 0.00 0.00 98 1011.3
20190923115504 61 307 0.0 0.0 0.00 0.00 0.00 97 1011.4
20190923115001 61 307 0.0 0.0 0.00 0.00 0.00 97 1011.3
20190923114502 61 307 0.0 0.0 0.00 0.00 0.00 97 1011.3
20190923113956 61 307 0.0 0.0 0.00 0.00 0.00 97 1011.3
20190923113447 61 307 0.0 0.0 0.00 0.00 0.00 97 1011.2
20190923112936 61 307 0.0 0.0 0.00 0.00 0.00 97 1011.3
20190923112427 61 307 0.0 0.0 0.00 0.00 0.00 97 1011.2
20190923111916 61 307 0.0 0.0 0.00 0.00 0.00 97 1011.3
20190923111406 61 307 0.0 0.0 0.00 0.00 0.00 97 1011.3
20190923110857 61 307 0.0 0.0 0.00 0.00 0.00 97 1011.3
20190923110346 61 307 0.0 0.0 0.00 0.00 0.00 97 1011.3
20190923105835 61 307 0.0 0.0 0.00 0.00 0.00 97 1011.4
20190923105326 61 307 0.0 0.0 0.00 0.00 0.00 97 1011.4
20190923104816 61 307 0.0 0.0 0.00 0.00 0.00 97 1011.4
20190923104306 61 307 0.0 0.0 0.00 0.00 0.00 97 1011.4
20190923103755 61 307 0.0 0.0 0.00 0.00 0.00 97 1011.5
20190923103246 61 307 0.0 0.0 0.00 0.00 0.00 97 1011.5
20190923102736 61 307 0.0 0.0 0.00 0.00 0.00 97 1011.5
20190923102226 61 307 0.0 0.0 0.00 0.00 0.00 97 1011.6
20190923101714 61 307 0.0 0.0 0.00 0.00 0.00 97 1011.5
20190923101203 61 307 0.0 0.0 0.00 0.00 0.00 97 1011.6
20190923100655 61 307 0.0 0.0 0.00 0.00 0.00 97 1011.6
20190923100142 61 307 0.0 0.0 0.00 0.00 0.00 97 1011.5
20190923095631 61 307 0.0 0.0 0.00 0.00 0.00 97 1011.5
20190923095122 61 307 0.0 0.0 0.00 0.00 0.00 97 1011.5
20190923094612 61 307 0.0 0.0 0.00 0.00 0.00 97 1011.5
20190923094055 61 307 0.0 0.0 0.00 0.00 0.00 97 1011.5
20190923093545 61 307 0.0 0.0 0.00 0.00 0.00 97 1011.5
20190923093034 61 307 0.0 0.0 0.00 0.00 0.00 97 1011.4
20190923092524 61 307 0.0 0.0 0.00 0.00 0.00 97 1011.5
20190923092015 61 307 0.0 0.0 0.00 0.00 0.00 96 1011.5
20190923091504 61 307 0.0 0.0 0.00 0.00 0.00 96 1011.6
20190923090954 61 307 0.0 0.0 0.00 0.00 0.00 96 1011.6
20190923090444 61 307 0.0 0.0 0.00 0.00 0.00 96 1011.6
20190923085935 61 307 0.0 0.0 0.00 0.00 0.00 96 1011.6
20190923085424 61 307 0.0 0.0 0.00 0.00 0.00 96 1011.6
20190923084915 61 307 0.0 0.0 0.00 0.00 0.00 96 1011.7
20190923084404 61 307 0.0 0.0 0.00 0.00 0.00 96 1011.7
20190923083854 61 307 0.0 0.0 0.00 0.00 0.00 96 1011.8
20190923083344 61 307 0.0 0.0 0.00 0.00 0.00 96 1011.8
20190923082835 61 307 0.0 0.0 0.00 0.00 0.00 96 1011.9
20190923082324 62 307 0.0 0.0 0.00 0.00 0.00 96 1011.9
20190923081815 62 307 0.0 0.0 0.00 0.00 0.00 96 1011.9
20190923081302 62 307 0.0 0.0 0.00 0.00 0.00 96 1012.0
20190923080752 62 307 0.0 0.0 0.00 0.00 0.00 96 1012.0
20190923080243 62 307 0.0 0.0 0.00 0.00 0.00 96 1012.0
20190923075732 62 307 0.0 0.0 0.00 0.00 0.00 96 1012.0
20190923075222 62 307 0.0 0.0 0.00 0.00 0.00 96 1012.0
20190923074713 62 307 0.0 0.0 0.00 0.00 0.00 95 1012.1
20190923074201 62 307 0.0 0.0 0.00 0.00 0.00 95 1012.2
20190923073652 62 307 0.0 0.0 0.00 0.00 0.00 95 1012.2
20190923073136 62 307 0.0 0.0 0.00 0.00 0.00 95 1012.2
20190923072627 62 307 0.0 0.0 0.00 0.00 0.00 96 1012.3
20190923072117 62 307 0.0 1.0 0.00 0.00 0.00 95 1012.4
20190923071559 63 307 0.0 1.0 0.00 0.00 0.00 95 1012.4
20190923071049 63 307 0.0 2.0 0.00 0.00 0.00 95 1012.4
20190923070539 63 307 0.0 2.0 0.00 0.00 0.00 95 1012.4
20190923070032 63 307 0.0 0.0 0.00 0.00 0.00 95 1012.5
20190923065521 63 307 0.0 0.0 0.00 0.00 0.00 95 1012.5
20190923065013 63 307 0.0 0.0 0.00 0.00 0.00 95 1012.7
20190923064503 63 307 0.0 0.0 0.00 0.00 0.00 95 1012.7
20190923063955 63 307 0.0 0.0 0.00 0.00 0.00 95 1012.7
20190923063449 63 307 0.0 0.0 0.00 0.00 0.00 95 1012.7
20190923062944 63 307 0.0 0.0 0.00 0.00 0.00 95 1012.8
20190923062439 63 307 0.0 0.0 0.00 0.00 0.00 95 1012.9
20190923061928 63 307 0.0 0.0 0.00 0.00 0.00 95 1013.0
20190923061424 63 307 0.0 0.0 0.00 0.00 0.00 95 1013.1
20190923060919 64 307 0.0 0.0 0.00 0.00 0.00 95 1013.1
20190923060412 64 307 0.0 0.0 0.00 0.00 0.00 95 1013.2
20190923055910 63 307 0.0 0.0 0.00 0.00 0.00 95 1013.2
20190923055405 63 307 0.0 0.0 0.00 0.00 0.00 95 1013.2
20190923054846 63 307 0.0 0.0 0.00 0.00 0.00 95 1013.2
20190923054343 63 307 0.0 0.0 0.00 0.00 0.00 95 1013.3
20190923053837 63 307 0.0 0.0 0.00 0.00 0.00 95 1013.3
20190923053333 63 307 0.0 0.0 0.00 0.00 0.00 94 1013.5
20190923052827 64 307 0.0 0.0 0.00 0.00 0.00 94 1013.5
20190923052320 64 307 0.0 0.0 0.00 0.00 0.00 94 1013.5
20190923051819 64 307 0.0 0.0 0.00 0.00 0.00 94 1013.6
20190923051314 64 307 0.0 0.0 0.00 0.00 0.00 94 1013.8
20190923050806 64 307 0.0 0.0 0.00 0.00 0.00 94 1013.7
20190923050305 64 307 0.0 0.0 0.00 0.00 0.00 94 1013.7
20190923045801 64 307 0.0 0.0 0.00 0.00 0.00 93 1013.8
20190923045246 64 307 0.0 0.0 0.00 0.00 0.00 93 1013.8
20190923044743 64 307 0.0 0.0 0.00 0.00 0.00 93 1013.9
20190923044232 65 307 0.0 0.0 0.00 0.00 0.00 93 1013.9
20190923043724 65 307 0.0 0.0 0.00 0.00 0.00 93 1013.9
20190923043224 65 307 0.0 0.0 0.00 0.00 0.00 93 1013.9
20190923042713 65 307 0.0 0.0 0.00 0.00 0.00 92 1014.0
20190923042203 65 307 0.0 0.0 0.00 0.00 0.00 92 1013.9
20190923041653 65 307 0.0 0.0 0.00 0.00 0.00 92 1014.0
20190923041143 65 307 0.0 0.0 0.00 0.00 0.00 92 1014.2
20190923040633 65 307 0.0 0.0 0.00 0.00 0.00 92 1014.1
20190923040124 65 307 0.0 0.0 0.00 0.00 0.00 92 1014.2
20190923035613 65 307 0.0 0.0 0.00 0.00 0.00 92 1014.3
20190923035103 66 307 0.0 0.0 0.00 0.00 0.00 92 1014.3
20190923034550 66 307 0.0 0.0 0.00 0.00 0.00 92 1014.4
20190923034031 66 307 0.0 0.0 0.00 0.00 0.00 91 1014.4
20190923033522 66 307 0.0 0.0 0.00 0.00 0.00 91 1014.5
20190923033012 66 307 0.0 0.0 0.00 0.00 0.00 91 1014.5
20190923032502 66 307 0.0 0.0 0.00 0.00 0.00 91 1014.5
20190923031952 66 307 0.0 1.0 0.00 0.00 0.00 91 1014.6
20190923031442 66 307 0.0 0.0 0.00 0.00 0.00 91 1014.6
20190923030926 66 307 0.0 1.0 0.00 0.00 0.00 91 1014.7
20190923030416 66 307 0.0 1.0 0.00 0.00 0.00 91 1014.9
20190923025910 66 307 0.0 1.0 0.00 0.00 0.00 90 1015.0
20190923025401 67 307 0.0 1.0 0.00 0.00 0.00 90 1014.9
20190923024859 67 307 0.0 1.0 0.00 0.00 0.00 90 1015.0
20190923024359 67 307 0.0 1.0 0.00 0.00 0.00 90 1015.0
20190923023850 67 307 0.0 3.0 0.00 0.00 0.00 90 1015.1
20190923023342 67 307 0.0 3.0 0.00 0.00 0.00 91 1015.0
20190923022840 66 56 0.0 1.0 0.00 0.00 0.00 90 1015.0
20190923022330 66 56 0.0 1.0 0.00 0.00 0.00 90 1015.1
20190923021819 66 279 0.0 3.0 0.00 0.00 0.00 91 1015.1
20190923021311 66 279 0.0 3.0 0.00 0.00 0.00 91 1015.1
20190923020809 66 261 0.0 0.0 0.00 0.00 0.00 90 1015.2
20190923020308 66 261 0.0 0.0 0.00 0.00 0.00 90 1015.2
20190923015803 66 261 0.0 0.0 0.00 0.00 0.00 90 1015.3
20190923015303 66 261 0.0 0.0 0.00 0.00 0.00 90 1015.3
20190923014753 66 261 0.0 0.0 0.00 0.00 0.00 90 1015.4
20190923014247 66 261 0.0 0.0 0.00 0.00 0.00 90 1015.4
20190923013743 66 261 0.0 0.0 0.00 0.00 0.00 90 1015.3
20190923013241 66 261 0.0 0.0 0.00 0.00 0.00 90 1015.3
20190923012741 66 261 0.0 0.0 0.00 0.00 0.00 90 1015.4
20190923012241 66 261 0.0 0.0 0.00 0.00 0.00 90 1015.4
20190923011736 66 261 0.0 0.0 0.00 0.00 0.00 90 1015.4
20190923011233 66 261 0.0 0.0 0.00 0.00 0.00 90 1015.4
20190923010730 66 261 0.0 0.0 0.00 0.00 0.00 90 1015.4
20190923010222 66 261 0.0 0.0 0.00 0.00 0.00 91 1015.4
20190923005701 66 261 0.0 1.0 0.00 0.00 0.00 91 1015.6
20190923005153 66 261 0.0 1.0 0.00 0.00 0.00 91 1015.5
20190923004655 65 261 0.0 1.0 0.00 0.00 0.00 91 1015.6
20190923004148 65 261 0.0 1.0 0.00 0.00 0.00 91 1015.7
20190923003639 65 261 0.0 1.0 0.00 0.00 0.00 91 1015.7
20190923003137 66 261 0.0 1.0 0.00 0.00 0.00 90 1015.6
20190923002627 66 261 0.0 0.0 0.00 0.00 0.00 90 1015.7
20190923002116 66 261 0.0 0.0 0.00 0.00 0.00 89 1015.7
20190923001606 66 261 0.0 0.0 0.00 0.00 0.00 89 1015.7
20190923001056 66 261 0.0 0.0 0.00 0.00 0.00 89 1015.8
20190923000545 66 261 0.0 0.0 0.00 0.00 0.00 89 1015.8
20190923000032 67 261 0.0 0.0 0.00 0.00 0.00 88 1015.8
20190922235522 67 261 0.0 0.0 0.00 0.00 0.00 87 1015.9
20190922235012 67 261 0.0 0.0 0.00 0.00 0.00 87 1015.8
20190922234453 67 261 0.0 0.0 0.00 0.00 0.00 86 1015.8
20190922233944 67 261 0.0 0.0 0.00 0.00 0.00 86 1015.7
20190922233426 68 261 0.0 0.0 0.00 0.00 0.00 86 1015.7
20190922232906 68 261 0.0 0.0 0.00 0.00 0.00 85 1015.7
20190922232356 68 261 0.0 0.0 0.00 0.00 0.00 85 1015.7
20190922231846 69 261 0.0 0.0 0.00 0.00 0.00 84 1015.8
20190922231336 69 261 0.0 0.0 0.00 0.00 0.00 83 1015.8
20190922230827 69 261 0.0 0.0 0.00 0.00 0.00 83 1015.8
20190922230315 70 261 0.0 0.0 0.00 0.00 0.00 83 1015.7
20190922225806 70 261 0.0 0.0 0.00 0.00 0.00 82 1015.8
20190922225256 71 261 0.0 0.0 0.00 0.00 0.00 81 1015.8
20190922224744 71 261 0.0 0.0 0.00 0.00 0.00 81 1015.8
20190922224236 71 261 0.0 0.0 0.00 0.00 0.00 81 1015.9
20190922223738 72 261 0.0 0.0 0.00 0.00 0.00 80 1015.9
20190922223227 72 261 0.0 0.0 0.00 0.00 0.00 78 1015.8
20190922222719 73 261 0.0 0.0 0.00 0.00 0.00 78 1015.9
20190922222208 73 261 0.0 0.0 0.00 0.00 0.00 77 1015.8
20190922221657 73 261 0.0 0.0 0.00 0.00 0.00 77 1015.8
20190922221148 74 261 0.0 0.0 0.00 0.00 0.00 76 1015.8
20190922220638 74 261 0.0 0.0 0.00 0.00 0.00 76 1015.8
20190922220127 74 261 0.0 0.0 0.00 0.00 0.00 75 1015.8
20190922215618 75 261 0.0 0.0 0.00 0.00 0.00 74 1015.8
20190922215108 75 261 0.0 0.0 0.00 0.00 0.00 73 1015.8
20190922214558 76 261 0.0 0.0 0.00 0.00 0.00 72 1015.9
20190922214048 76 261 0.0 1.0 0.00 0.00 0.00 72 1015.9
20190922213538 76 261 0.0 1.0 0.00 0.00 0.00 71 1015.8
20190922213028 76 261 0.0 1.0 0.00 0.00 0.00 71 1015.8
20190922212516 77 261 0.0 1.0 0.00 0.00 0.00 69 1015.8
20190922212006 77 261 0.0 2.0 0.00 0.00 0.00 68 1015.9
20190922211456 77 261 0.0 2.0 0.00 0.00 0.00 69 1015.9
20190922210937 78 261 0.0 1.0 0.00 0.00 0.00 68 1016.0
20190922210428 78 261 0.0 2.0 0.00 0.00 0.00 68 1016.0
20190922205918 78 261 0.0 2.0 0.00 0.00 0.00 66 1016.0
20190922205408 79 261 0.0 1.0 0.00 0.00 0.00 66 1016.1
20190922204858 79 261 0.0 3.0 0.00 0.00 0.00 63 1016.1
20190922204348 79 261 0.0 3.0 0.00 0.00 0.00 62 1016.1
20190922203838 80 259 1.0 5.0 0.00 0.00 0.00 60 1016.1
20190922203328 80 300 1.0 5.0 0.00 0.00 0.00 59 1016.2
20190922202818 80 286 0.0 3.0 0.00 0.00 0.00 60 1016.1
20190922202307 81 86 0.0 2.0 0.00 0.00 0.00 58 1016.1
20190922201758 81 344 0.0 4.0 0.00 0.00 0.00 54 1016.1
20190922201250 81 342 0.0 4.0 0.00 0.00 0.00 56 1016.2
20190922200742 81 330 0.0 3.0 0.00 0.00 0.00 56 1016.2
20190922200239 81 328 0.0 3.0 0.00 0.00 0.00 56 1016.3
20190922195729 81 9 0.0 2.0 0.00 0.00 0.00 56 1016.4
20190922195226 82 355 0.0 2.0 0.00 0.00 0.00 54 1016.5
20190922194719 82 355 1.0 2.0 0.00 0.00 0.00 53 1016.7
20190922194213 82 355 1.0 4.0 0.00 0.00 0.00 50 1016.6
20190922193707 83 325 1.0 4.0 0.00 0.00 0.00 47 1016.5
20190922193159 83 355 1.0 7.0 0.00 0.00 0.00 48 1016.6
20190922192655 83 306 1.0 7.0 0.00 0.00 0.00 46 1016.7
20190922192148 84 315 1.0 4.0 0.00 0.00 0.00 45 1016.9
20190922191641 84 319 1.0 4.0 0.00 0.00 0.00 46 1016.9
20190922191133 84 355 1.0 5.0 0.00 0.00 0.00 42 1017.0
20190922190632 84 331 1.0 5.0 0.00 0.00 0.00 43 1017.1
20190922190130 84 338 1.0 4.0 0.00 0.00 0.00 44 1017.2
20190922185619 84 306 1.0 4.0 0.00 0.00 0.00 46 1017.4
20190922185106 84 9 1.0 4.0 0.00 0.00 0.00 46 1017.4
20190922184601 84 9 1.0 4.0 0.00 0.00 0.00 45 1017.3
20190922184056 83 32 2.0 5.0 0.00 0.00 0.00 42 1017.3
20190922183553 83 318 2.0 5.0 0.00 0.00 0.00 44 1017.4
20190922183045 83 304 1.0 8.0 0.00 0.00 0.00 43 1017.4
20190922182545 83 297 2.0 8.0 0.00 0.00 0.00 43 1017.5
20190922182040 84 268 2.0 6.0 0.00 0.00 0.00 44 1017.6
20190922181533 83 313 1.0 6.0 0.00 0.00 0.00 44 1017.7
20190922181020 83 26 1.0 5.0 0.00 0.00 0.00 52 1017.7
20190922180519 83 313 1.0 5.0 0.00 0.00 0.00 51 1017.8
20190922180003 83 277 2.0 5.0 0.00 0.00 0.00 50 1017.9
20190922175457 83 306 2.0 4.0 0.00 0.00 0.00 48 1017.8
20190922174951 83 220 2.0 8.0 0.00 0.00 0.00 49 1017.9
20190922174444 83 323 2.0 8.0 0.00 0.00 0.00 46 1017.9
20190922173938 83 289 2.0 5.0 0.00 0.00 0.00 47 1018.1
20190922173435 82 124 2.0 4.0 0.00 0.00 0.00 47 1018.0
20190922172925 82 355 1.0 3.0 0.00 0.00 0.00 51 1018.1
20190922172414 82 340 1.0 4.0 0.00 0.00 0.00 50 1018.0
20190922171902 82 331 1.0 4.0 0.00 0.00 0.00 50 1018.1
20190922171356 82 343 1.0 4.0 0.00 0.00 0.00 50 1018.2
20190922170857 82 13 2.0 4.0 0.00 0.00 0.00 54 1018.3
20190922170346 81 295 2.0 6.0 0.00 0.00 0.00 54 1018.5
20190922165837 81 323 2.0 6.0 0.00 0.00 0.00 51 1018.6
20190922165327 80 112 2.0 8.0 0.00 0.00 0.00 55 1018.8
20190922164816 80 44 1.0 8.0 0.00 0.00 0.00 57 1018.9
20190922164307 80 315 2.0 10.0 0.00 0.00 0.00 58 1019.0
20190922163757 80 305 2.0 10.0 0.00 0.00 0.00 53 1019.1
20190922163247 79 5 1.0 5.0 0.00 0.00 0.00 57 1019.2
20190922162737 79 110 2.0 6.0 0.00 0.00 0.00 62 1019.1
20190922162227 79 326 2.0 6.0 0.00 0.00 0.00 61 1019.1
20190922161716 78 309 1.0 4.0 0.00 0.00 0.00 61 1019.2
20190922161207 78 126 1.0 3.0 0.00 0.00 0.00 61 1019.3
20190922160658 78 126 1.0 5.0 0.00 0.00 0.00 65 1019.3
20190922160147 78 306 1.0 7.0 0.00 0.00 0.00 62 1019.4
20190922155638 77 313 2.0 7.0 0.00 0.00 0.00 61 1019.5
20190922155121 76 46 1.0 5.0 0.00 0.00 0.00 62 1019.6
20190922154622 76 321 1.0 3.0 0.00 0.00 0.00 68 1019.6
20190922154122 76 320 1.0 3.0 0.00 0.00 0.00 66 1019.6
20190922153619 75 271 1.0 3.0 0.00 0.00 0.00 68 1019.8
20190922153120 75 333 1.0 3.0 0.00 0.00 0.00 65 1019.9
20190922152623 75 332 1.0 3.0 0.00 0.00 0.00 67 1019.9
20190922152105 74 309 1.0 4.0 0.00 0.00 0.00 67 1019.9
20190922151555 74 309 1.0 4.0 0.00 0.00 0.00 66 1019.8
20190922151045 74 288 1.0 4.0 0.00 0.00 0.00 70 1019.9
20190922150535 73 323 1.0 4.0 0.00 0.00 0.00 74 1020.2
20190922150025 73 309 1.0 7.0 0.00 0.00 0.00 71 1020.3
20190922145516 72 309 1.0 7.0 0.00 0.00 0.00 75 1020.4
20190922145005 72 269 1.0 7.0 0.00 0.00 0.00 77 1020.4
20190922144455 71 298 0.0 3.0 0.00 0.00 0.00 77 1020.4
20190922143946 71 333 0.0 1.0 0.00 0.00 0.00 81 1020.4
20190922143435 70 333 0.0 3.0 0.00 0.00 0.00 82 1020.4
20190922142925 70 333 0.0 3.0 0.00 0.00 0.00 81 1020.5
20190922142415 69 335 1.0 4.0 0.00 0.00 0.00 81 1020.5
20190922141904 68 299 1.0 4.0 0.00 0.00 0.00 86 1020.5